STARLINK-1305 (45377 NORAD) Tracking and Keplerian Element Data

This shows tracking and keplerian element data for the satellite.

Feedback or suggestion? Click here.




ElementValue
Catalog45377
NameSTARLINK-1305
Epoch Orbit1763
Epoch Day189.91668981
Epoch Year2020
RAAN102.6816
Inclination52.999
Eccentricity0.0001319
Argument of Perigee94.7562
Mean Anonmoly8.7896
Mean Motion15.05622182
Decay Rate-0.00032505
L11 45377U 20019T 20189.91668981 -.00032505 00000-0 -22194-2 0 9993
L22 45377 52.9990 102.6816 0001319 94.7562 8.7896 15.05622182 17630

Live tracking and technical data element details for STARLINK-1305 (NORAD 45377). STARLINK-1305 can be tracked NOW for your location showing map with azimuth and elevation plus other details from your city location.

Track the satellite on the map from your city or location and see movement details for azimuth, elevation, latitude, longitude, range, height, and movement on the map or in text.







IsCatalogInMostPopularTable: catalog: 45377, numindb: 21
Update: records affected: 1



GetName: 45377 STARLINK-1305

Hit Count: updated at: Thu, 09 Jul 2020 02:12:56 GMT